STARLINK-34343 DEB, 69730

Orbit data source: Space-Track

STARLINK-34343 DEB, 69730 is space debris in SSO originally from a launch on Tue, 27 May 2025 UTC launched from the Air Force Western Test Range (AFWTR). Debris objects in space refer to the collection of defunct objects orbiting the Earth. Examples of debris include non-operational satellites, rocket bodies, and fragments generated from explosions, collisions, or faulty payload assembly.

Loading next visibility...
Identifier
69730, 2025-112AB
Orbit
SSO
Country
Flag of USUS
Related business
Manufacturer
SpaceX/Seattle
Mission
Spacecraft
Bus & Motor
Unknown
Mass
Unknown
Launch date (UTC)
2025-05-27 (1 year ago)
Launch vehicle
Unknown
Launch site
Air Force Western Test Range (AFWTR)
Object type
Payload
Rocket body
Debris
Shape & HBR
Unknown shape, 1.1 m
Radar Cross Section
Medium (>0.1 m² and <1 m²)

Expand to show TLE details & history
Last TLE update: 1 day ago

TLE from 1 day ago
0 STARLINK-34343 DEB
1 69730U 25112AB  26197.09819796  .00126058  00000-0  50875-2 0  9999
2 69730  97.6169 249.0573 0022618 173.9743 186.1770 15.24018631 15061
Epoch: 2026-07-16T02:21Z
TLE epoch observation values (Epoch: 2026-07-16T02:21:24.303Z)
Latitude
-0.00006°
Longitude
-80.23849°
Altitude
512.28 km
Speed
7.599 km/s
True Right ascension
16h 36m 13s
True Declination
0° 00' 00"
Sunlit
Object was in full shadow at epoch
Visualization orbit readout
Latitude
Unknown
Longitude
Unknown
Altitude
Unknown
Speed
Unknown
Apparent Right ascension
Unknown
Apparent Declination
Unknown
Sunlit
N/A
Visualization observer readout
Local Sidereal Time
21:15:34
Azimuth
Unknown
Elevation
Unknown
Doppler factor
Unknown
Orbital elements
Apogee altitude
506.239 km
Perigee altitude
475.168 km
Semi-major axis
6,868.84 km
Eccentricity
0.00226
Inclination
97.6169°
RAAN
249.0573°
Arg. of periapsis
173.9743°
True anomaly
186.14919°
Mean anomaly
186.177°
Eccentric anomaly
186.16309°
Mean motion
3.81257 °/min
Orbital period
94.42 mins
BSTAR
0.0050875
Loading maneuver chart data...
Computing Atmospheric mass density...
Loading historical data...
Loading historical data...
Loading historical data...
Loading historical data...
Loading historical data...
Loading historical data...
Loading historical data...

Documentation

Showing up to 5 results
|